[[{"header":{"parameterUnit":"m.s-1","parameterCategory":1,"la1":30.2991,"la2":30.254,"lo1":-89.0895,"lo2":-89.0444,"dy":0.0017,"dx":0.0017,"nx":28,"ny":28,"refTime":"2024-07-13T21:00:00:Z","depth":0,"parameterNumber":2,"parameterNumberName":"U-component_of_WINDS"},"data":[0,0,0,0,0,0,0,0,0,0,0,0,0,0,0,0,0,0,0,0,0,0,0,0,0,0,0,0,0,0,0,0,0,0,0,0,0,0,0,0,0,0,0,0,0,0,0,0,0,0,0,0,0,0,0,0,0,0,1.7515,1.7515,0,1.7518,1.7518,1.7518,1.7491,1.749,1.7489,1.7489,1.7493,1.7494,1.7494,0,0,0,0,0,0,0,0,0,0,0,0,0,1.7489,1.749,1.7515,1.7515,1.7515,1.7518,1.7518,1.7518,1.7491,1.749,1.7489,1.7488,1.7493,1.7493,1.7494,0,0,0,0,0,0,0,0,0,0,0,0,0,1.7497,1.749,1.7515,1.7502,1.7501,1.7518,1.7518,1.7518,1.7491,1.749,1.7489,1.7488,1.7492,1.7493,1.7495,1.7524,0,0,1.7498,1.7499,0,0,0,0,0,0,0,0,1.7496,1.7498,1.7504,1.7503,1.7502,1.7503,1.751,1.752,1.7492,1.7495,1.7489,1.7487,1.7497,1.7498,1.7501,1.7525,1.7525,1.7498,1.7499,1.75,1.75,0,0,0,0,0,0,0,1.7496,1.7498,1.7516,1.7504,1.7503,1.7497,1.7497,1.7512,1.7502,1.7495,1.7493,1.7493,1.7496,1.75,1.7501,1.7525,1.7498,1.7499,1.75,1.7501,1.7574,1.7576,0,0,0,0,0,0,1.7497,1.7497,1.7516,1.7516,1.7496,1.7498,1.7498,1.7504,1.7502,1.7501,1.7494,1.7492,1.7498,1.7499,1.7501,1.7536,1.75,1.7501,1.7501,1.7573,1.7575,1.7576,0,0,0,0,0,0,1.7496,1.7499,1.7516,1.7506,1.7508,1.75,1.7506,1.7504,1.7508,1.7502,1.75,1.7499,1.7497,1.7499,1.7519,1.7536,1.7501,1.7502,1.7572,1.7574,1.7575,1.7607,0,0,0,0,0,0,1.7496,1.7499,1.751,1.7507,1.7509,1.7534,1.7507,1.7505,1.751,1.7507,1.7506,1.7505,1.7497,1.7517,1.752,1.7537,1.7503,1.757,1.7573,1.7575,1.7605,1.761,1.7614,0,0,0,0,0,1.7495,1.7519,1.751,1.7513,1.7522,1.7535,1.7536,1.7525,1.7511,1.7522,1.7519,1.7505,1.7534,1.752,1.7522,1.754,1.7569,1.7572,1.7575,1.7602,1.7609,1.7614,0,0,0,0,0,0,1.7524,1.7518,1.7509,1.7532,1.7534,1.753,1.7544,1.7533,1.7539,1.7536,1.7523,1.7523,1.7546,1.7545,1.7529,1.7569,1.7549,1.7552,1.7569,1.7575,1.758,1.758,1.7504,0,0,0,0,0,1.7533,1.7543,1.7538,1.7559,1.756,1.7552,1.7557,1.7549,1.7551,1.7552,1.7549,1.7552,1.7562,1.7568,1.7577,1.7604,1.7604,1.7618,1.7623,1.7627,1.763,1.7646,1.7652,1.7585,1.7585,1.7585,0,0,1.7552,1.755,1.7557,1.7565,1.7565,1.7577,1.7553,1.7566,1.7575,1.7554,1.7572,1.7571,1.7573,1.7597,1.7608,1.7597,1.7649,1.7631,1.7634,1.7635,1.7649,1.7655,1.7661,1.7587,1.7587,1.7586,0,0,1.7592,1.7591,1.7609,1.761,1.7612,1.7606,1.7611,1.7609,1.7607,1.7625,1.761,1.762,1.7637,1.764,1.7643,1.7685,1.7673,1.7689,1.7715,1.773,1.7735,1.7739,1.7755,1.7761,1.7692,1.7692,1.7692,0,1.7615,1.7632,1.762,1.7634,1.7638,1.762,1.7638,1.764,1.7644,1.7648,1.7636,1.7657,1.7658,1.7682,1.7693,1.7696,1.7701,1.7689,1.7735,1.7739,1.7744,1.7758,1.7764,1.7694,1.7694,1.7693,1.7693,0,1.7661,1.7673,1.7687,1.7691,1.7697,1.7714,1.7705,1.7712,1.7704,1.77,1.7719,1.7719,1.7728,1.7733,1.7725,1.7757,1.775,1.7737,1.7716,1.7752,1.7766,1.7771,1.7697,1.7696,1.7695,1.7695,0,0,1.7719,1.7717,1.7722,1.7725,1.7725,1.7734,1.775,1.7758,1.7765,1.7769,1.7783,1.7798,1.7786,1.779,1.7782,1.7795,1.783,1.778,1.778,1.779,1.7866,1.7876,1.7882,1.7822,1.7823,1.7823,1.7866,0,1.7758,1.7785,1.7775,1.7803,1.7814,1.7797,1.7811,1.7814,1.7811,1.782,1.7817,1.7828,1.7811,1.7813,1.7826,1.7823,1.7845,1.782,1.7835,1.7835,1.7835,1.7889,1.79,1.794,1.7871,1.7872,1.7872,0,1.7808,1.7814,1.7843,1.7842,1.7846,1.7859,1.7866,1.7875,1.7878,1.7875,1.788,1.7869,1.7886,1.7865,1.7888,1.7871,1.7877,1.7877,1.7878,1.7879,1.7856,1.7892,1.7952,1.7958,1.7881,1.788,1.7879,0,1.7848,1.7863,1.7883,1.7885,1.7884,1.7894,1.7894,1.7896,1.7902,1.7908,1.7912,1.792,1.7925,1.7932,1.7924,1.791,1.7949,1.7927,1.7947,1.7948,1.7956,1.7956,1.8018,1.796,1.796,1.7959,1.7959,0,1.7894,1.7912,1.7901,1.7913,1.7933,1.7922,1.7943,1.7941,1.7943,1.7955,1.7941,1.7952,1.7942,1.7952,1.7947,1.7967,1.7969,1.7968,1.7966,1.7969,1.7969,1.7973,1.797,1.7961,1.7961,1.796,1.796,0,1.7942,1.7935,1.7955,1.7953,1.7953,1.7968,1.7967,1.7978,1.7974,1.799,1.7993,1.7987,1.7999,1.7992,1.8005,1.8001,1.8027,1.8022,1.8026,1.8025,1.8045,1.8044,1.8112,1.8121,1.8057,1.8057,1.8058,0,1.7971,1.7985,1.7985,1.7992,1.7993,1.8004,1.801,1.8,1.8007,1.8011,1.8022,1.8033,1.8041,1.8062,1.8059,1.8069,1.8063,1.8087,1.8065,1.8068,1.8064,1.8063,1.8065,1.8091,1.8092,1.8092,1.8093,0,1.8025,1.8021,1.8029,1.8037,1.8045,1.805,1.8055,1.8062,1.8052,1.806,1.8072,1.8079,1.8092,1.8103,1.8111,1.8112,1.8101,1.81,1.8105,1.8108,1.8111,1.811,1.8039,1.8098,1.8098,1.8097,1.8097,1.8097,1.8065,1.8076,1.8078,1.8089,1.8091,1.8096,1.8107,1.8104,1.8114,1.8124,1.8117,1.8132,1.8135,1.8145,1.8148,1.8159,1.815,1.8158,1.8159,1.8161,1.8164,1.8109,1.8161,1.8161,1.8161,1.816,1.816,0,1.8117,1.8118,1.8128,1.8135,1.8143,1.8132,1.8137,1.8145,1.8157,1.8161,1.8169,1.8184,1.8195,1.8193,1.8203,1.8213,1.8208,1.8216,1.8215,1.8216,1.8172,1.8167,1.822,1.822,1.822,1.822,1.822,1.822,1.8146,1.8165,1.8162,1.8183,1.8183,1.8197,1.8201,1.8206,1.8209,1.8225,1.8234,1.8233,1.8235,1.8245,1.8255,1.8254,1.8259,1.8269,1.8266,1.8225,1.8219,1.8213,1.8208,1.827,1.827,1.8309,1.8309,1.831]},{"header":{"parameterUnit":"m.s-1","parameterCategory":1,"la1":30.2991,"la2":30.254,"lo1":-89.0895,"lo2":-89.0444,"dy":0.0017,"dx":0.0017,"nx":28,"ny":28,"refTime":"2024-07-13T21:00:00:Z","depth":0,"parameterNumber":3,"parameterNumberName":"V-component_of_WINDS"},"data":[0,0,0,0,0,0,0,0,0,0,0,0,0,0,0,0,0,0,0,0,0,0,0,0,0,0,0,0,0,0,0,0,0,0,0,0,0,0,0,0,0,0,0,0,0,0,0,0,0,0,0,0,0,0,0,0,0,0,0.9201,0.9201,0,0.9228,0.9228,0.9229,0.9238,0.9238,0.9238,0.9238,0.9265,0.9265,0.9266,0,0,0,0,0,0,0,0,0,0,0,0,0,0.9155,0.9156,0.9201,0.9201,0.9202,0.9228,0.9228,0.9229,0.9238,0.9238,0.9238,0.9238,0.9264,0.9265,0.9266,0,0,0,0,0,0,0,0,0,0,0,0,0,0.9178,0.9156,0.9201,0.921,0.9211,0.9228,0.9228,0.9229,0.9238,0.9238,0.9238,0.9238,0.9264,0.9265,0.9266,0.9277,0,0,0.927,0.9271,0,0,0,0,0,0,0,0,0.9177,0.918,0.9208,0.9209,0.921,0.923,0.9222,0.9245,0.9238,0.9228,0.9238,0.9238,0.9253,0.9255,0.9261,0.9278,0.9279,0.927,0.9271,0.9271,0.9272,0,0,0,0,0,0,0,0.9175,0.9179,0.9212,0.9208,0.921,0.9211,0.9215,0.9226,0.9241,0.9229,0.9229,0.9233,0.9254,0.9259,0.9261,0.928,0.927,0.9271,0.9272,0.9272,0.9305,0.9306,0,0,0,0,0,0,0.9172,0.9177,0.9211,0.9212,0.9193,0.9212,0.9216,0.9224,0.9241,0.9243,0.9233,0.9233,0.9257,0.926,0.9262,0.9275,0.9271,0.9273,0.9273,0.9305,0.9305,0.9306,0,0,0,0,0,0,0.9171,0.9175,0.921,0.9195,0.92,0.9213,0.9222,0.9224,0.923,0.9244,0.9246,0.9236,0.9257,0.926,0.9273,0.9276,0.9273,0.9274,0.9305,0.9305,0.9306,0.93,0,0,0,0,0,0,0.917,0.9175,0.918,0.9195,0.92,0.9221,0.9222,0.9225,0.9232,0.9233,0.9248,0.925,0.9257,0.9271,0.9274,0.9277,0.9275,0.9305,0.9305,0.9305,0.93,0.93,0.93,0,0,0,0,0,0.9168,0.9177,0.918,0.9184,0.9207,0.9221,0.9224,0.9233,0.9232,0.9237,0.9245,0.9249,0.9275,0.9272,0.9276,0.9279,0.9305,0.9305,0.9305,0.93,0.93,0.93,0,0,0,0,0,0,0.9161,0.9179,0.9183,0.9197,0.9207,0.9222,0.9228,0.9232,0.9243,0.9243,0.9253,0.9256,0.9268,0.9275,0.9271,0.929,0.929,0.9291,0.9285,0.9285,0.9285,0.9283,0.9276,0,0,0,0,0,0.9161,0.9172,0.9187,0.9198,0.9203,0.9214,0.9221,0.9227,0.9238,0.9242,0.9252,0.9262,0.9272,0.9279,0.9289,0.9301,0.9304,0.9305,0.9305,0.9305,0.9306,0.9312,0.9312,0.9307,0.9307,0.9307,0,0,0.9162,0.9173,0.9179,0.9196,0.9205,0.9215,0.9218,0.9229,0.9236,0.9244,0.9256,0.9263,0.9275,0.9287,0.9293,0.9293,0.9308,0.9306,0.9306,0.9306,0.9312,0.9313,0.9313,0.9307,0.9307,0.9307,0,0,0.9167,0.9177,0.9187,0.9195,0.9209,0.9216,0.9218,0.9233,0.9238,0.925,0.9256,0.9264,0.9282,0.929,0.9297,0.9304,0.9307,0.9307,0.9307,0.9312,0.9313,0.9313,0.9315,0.9316,0.9307,0.9307,0.9307,0,0.9166,0.9182,0.9191,0.9201,0.9208,0.9216,0.9225,0.9233,0.9249,0.9253,0.9253,0.9275,0.9284,0.9297,0.9299,0.9304,0.9306,0.9305,0.9312,0.9313,0.9313,0.9315,0.9316,0.9307,0.9307,0.9307,0.9307,0,0.9179,0.919,0.9196,0.9211,0.9219,0.9228,0.9238,0.9245,0.925,0.9257,0.9269,0.9279,0.9291,0.9295,0.93,0.9308,0.9308,0.931,0.9311,0.9313,0.9315,0.9316,0.9307,0.9307,0.9307,0.9307,0,0,0.9181,0.9201,0.9203,0.9209,0.9224,0.9232,0.9242,0.9254,0.9259,0.9269,0.9277,0.9291,0.9292,0.93,0.9305,0.931,0.9314,0.9311,0.9312,0.9311,0.9323,0.9322,0.9323,0.9316,0.9317,0.9317,0.9322,0,0.9189,0.9207,0.9215,0.9229,0.9238,0.9245,0.9253,0.9262,0.9269,0.9277,0.9284,0.9294,0.9296,0.93,0.9305,0.9312,0.9317,0.9312,0.9323,0.9323,0.932,0.9324,0.9323,0.9327,0.9323,0.9323,0.9324,0,0.92,0.921,0.9225,0.9237,0.9242,0.9249,0.926,0.9268,0.9278,0.9283,0.929,0.9295,0.9305,0.9304,0.9317,0.9313,0.9318,0.9322,0.9323,0.9324,0.9324,0.9325,0.9329,0.933,0.9325,0.9325,0.9325,0,0.9199,0.9217,0.9228,0.9233,0.9248,0.9253,0.926,0.927,0.9276,0.9285,0.9289,0.9299,0.9305,0.9312,0.932,0.9319,0.9331,0.9332,0.9334,0.9334,0.9337,0.9337,0.9342,0.934,0.934,0.934,0.934,0,0.9206,0.9215,0.9228,0.9235,0.9244,0.9253,0.9262,0.9269,0.9277,0.9285,0.9291,0.9298,0.9307,0.9315,0.9321,0.933,0.9332,0.9335,0.9337,0.9335,0.9334,0.9338,0.9338,0.934,0.934,0.934,0.934,0,0.9208,0.9217,0.9229,0.9242,0.9246,0.9252,0.9263,0.9269,0.9276,0.9285,0.9288,0.9298,0.9307,0.9315,0.9328,0.9331,0.934,0.9342,0.9337,0.9338,0.934,0.934,0.9348,0.9349,0.9347,0.9347,0.9347,0,0.9212,0.9219,0.9232,0.9238,0.9244,0.9253,0.926,0.9268,0.9274,0.9286,0.9291,0.93,0.9309,0.9323,0.9331,0.934,0.9342,0.9344,0.9344,0.9341,0.9342,0.9341,0.9342,0.9344,0.9344,0.9344,0.9344,0,0.9218,0.9222,0.9231,0.9241,0.9249,0.9257,0.9266,0.927,0.928,0.9286,0.9296,0.9302,0.9315,0.9324,0.9334,0.934,0.9343,0.9344,0.9345,0.9344,0.934,0.9342,0.9337,0.9344,0.9344,0.9344,0.9344,0.9344,0.922,0.9226,0.9237,0.9247,0.9254,0.9262,0.9268,0.9275,0.9284,0.9294,0.9299,0.9308,0.9317,0.9331,0.9336,0.9344,0.9344,0.9346,0.9346,0.9347,0.9346,0.9339,0.9345,0.9345,0.9345,0.9345,0.9345,0,0.9226,0.9233,0.9242,0.9254,0.9261,0.9264,0.9274,0.9279,0.9288,0.9296,0.9304,0.9315,0.9323,0.9332,0.9341,0.9345,0.9347,0.9347,0.9347,0.9348,0.9345,0.9343,0.9345,0.9345,0.9345,0.9345,0.9345,0.9345,0.923,0.924,0.9245,0.9259,0.9265,0.9275,0.928,0.9287,0.9293,0.9305,0.9313,0.9318,0.9326,0.9336,0.9343,0.9346,0.9348,0.9348,0.9351,0.9348,0.9348,0.9348,0.9346,0.9349,0.9349,0.9353,0.9353,0.9353]}]]